Location: Gairloch Mountain Observatory
(46.1383°N, 60.9640°W)
Time: 16:10:19
(UTC-04:00)

CENTAUR R/B - Visible Passes

Search period start: 18 January 2017 00:00
Search period end: 28 January 2017 00:00
Orbit: 841 x 1348 km, 63.5° (Epoch: 11 January)

Date Brightness Start Highest point End Pass type
(mag) Time Alt. Az. Time Alt. Az. Time Alt. Az.
18 Jan 2.6 17:58:11 10° SW 18:04:21 84° NW 18:11:15 11° NE visible
18 Jan 4.1 19:50:31 10° W 19:56:06 29° NNW 19:58:27 24° N visible
18 Jan 5.2 21:44:20 10° NW 21:45:39 14° NW 21:45:39 14° NW visible
19 Jan 2.7 17:10:12 10° SSW 17:16:12 63° ESE 17:23:01 10° NE visible
19 Jan 3.8 19:01:27 10° W 19:07:19 37° NNW 19:12:02 18° NNE visible
19 Jan 4.7 20:55:15 10° NW 20:59:13 20° NNW 20:59:13 20° NNW visible
20 Jan 3.3 18:12:37 10° WSW 18:18:44 52° NW 18:25:34 10° NE visible
20 Jan 4.4 20:06:00 10° WNW 20:11:12 23° NNW 20:12:45 21° N visible
20 Jan 5.3 21:59:14 10° NW 21:59:57 12° NNW 21:59:57 12° NNW visible
21 Jan 2.8 17:24:09 10° SW 17:30:20 77° NW 17:37:23 10° NE visible
21 Jan 4.2 19:16:44 10° W 19:22:14 27° NNW 19:26:15 17° NNE visible
21 Jan 4.8 21:10:29 10° NW 21:13:27 18° NNW 21:13:27 18° NNW visible
22 Jan 3.9 18:27:36 10° W 18:33:25 35° NNW 18:39:44 11° NNE visible
22 Jan 4.5 20:21:27 10° NW 20:26:27 20° N 20:26:55 20° N visible
22 Jan 5.4 22:13:45 10° NNW 22:14:07 11° NNW 22:14:07 11° NNW visible
23 Jan 3.4 17:38:43 10° WSW 17:44:46 48° NW 17:51:40 10° NE visible
23 Jan 4.5 19:32:13 10° WNW 19:37:22 22° NNW 19:40:22 17° NNE visible
23 Jan 4.9 21:25:18 10° NW 21:27:34 17° NNW 21:27:34 17° NNW visible
24 Jan 4.3 18:42:57 10° WNW 18:48:22 26° NNW 18:53:49 12° NNE visible
24 Jan 4.6 20:36:36 10° NW 20:41:00 20° N 20:41:00 20° N visible
24 Jan 5.4 22:28:03 10° NNW 22:28:11 11° NNW 22:28:11 11° NNW visible
25 Jan 4.0 17:53:46 10° W 17:59:31 33° NNW 18:05:58 10° NNE visible
25 Jan 4.5 19:47:38 10° NW 19:52:38 20° N 19:54:24 19° NNE visible
25 Jan 5.0 21:39:46 10° NNW 21:41:36 17° NNW 21:41:36 17° NNW visible
26 Jan 4.5 18:58:26 10° WNW 19:03:32 21° N 19:07:50 13° NNE visible
26 Jan 4.6 20:51:20 10° NW 20:55:01 21° N 20:55:01 21° N visible
27 Jan 4.3 18:09:10 10° WNW 18:14:31 25° NNW 18:20:24 10° NNE visible
27 Jan 4.4 20:02:43 10° NW 20:07:57 21° N 20:08:25 21° NNE visible
27 Jan 5.0 21:54:00 10° NNW 21:55:37 17° NNW 21:55:37 17° NNW visible
